Presure
159 184 171 186 201 176 202 182 133 167 200 186 185 173 146 124 164 123 147 145 230 151 184 192 188 179 190 167 185 134 120 126 117 114 120 121 125 114 142 164 132 104 141 113 147
174 175 225 211 220 185 179 192 180 171 187 191 181 160 125 133 147 183 137 134 196 111 185 184 184 179 184 190 187 131 161 142 125 114 117 126 138 127 124 122 129 137 130 135 128
210 243 200 164 272 180 122 212 192 179 179 176 195 167 162 175 110 169 156 139 162 90 249 174 187 180 183 174 183 177 167 115 167 173 121 136 78 141 133 110 131 126 131 131 121
188 225 233 221 162 271 195 158 195 188 184 185 179 168 188 168 138 138 195 137 135 163 206 252 209 202 180 192 181 192 175 184 186 178 121 110 121 106 119 130 108 127 129 129 140
229 221 232 212 191 217 190 187 188 194 176 190 197 189 162 160 181 120 190 124 143 174 188 196 258 238 178 200 198 190 186 100 190 157 136 171 154 155 175 108 102 101 144 180 142
225 221 227 180 250 268 279 257 216 202 191 187 175 198 191 169 147 128 147 152 127 133 154 174 175 177 249 225 184 165 188 197 194 161 106 180 166 182 180 109 125 185 190 110 182
210 238 219 219 243 231 264 235 232 205 198 183 181 175 178 186 185 143 184 145 164 170 140 147 189 180 202 227 254 244 204 186 187 193 189 189 185 116 133 197 183 116 186 188 228
194 248 240 245 197 249 257 267 254 211 204 198 187 173 182 186 191 168 122 163 142 142 185 138 162 189 198 199 205 214 255 251 246 128 187 204 200 123 199 204 207 207 226 227 197
173 237 227 243 224 255 253 259 247 229 206 201 195 195 192 188 182 204 128 155 162 142 167 159 153 173 188 197 194 200 205 206 202 97 223 218 217 219 221 219 227 218 210 215 216
220 218 220 222 231 239 243 252 264 247 208 197 194 200 182 180 183 160 187 124 148 165 138 159 134 151 161 182 178 178 190 194 198 233 208 208 208 222 223 209 203 198 192 198 205
214 227 221 230 264 240 252 240 259 242 231 200 189 188 192 132 186 186 129 139 171 144 132 178 162 136 151 173 179 183 178 207 82 273 252 246 89 219 189 192 182 188 207 177 199
212 220 237 242 269 255 242 248 252 276 206 202 194 187 200 177 176 183 141 171 175 156 157 173 172 138 137 175 176 176 187 195 200 185 241 133 196 199 194 185 191 200 196 196 189
215 227 239 252 259 266 248 246 250 259 230 218 199 190 196 185 179 163 189 167 185 167 165 173 181 164 133 140 137 179 139 177 196 198 194 195 191 192 190 198 197 190 193 189 185
225 232 246 265 262 263 253 246 251 243 260 245 199 186 196 181 188 179 168 171 186 187 116 154 189 185 187 161 147 173 172 170 172 185 163 181 180 185 132 197 182 190 196 196 195
228 240 256 263 270 263 256 251 247 243 264 241 214 192 196 190 145 189 170 183 170 167 125 120 161 150 183 136 128 140 171 181 187 174 174 175 181 184 181 193 189 186 199 186 193
238 253 262 269 280 265 257 254 237 246 256 224 230 197 198 187 177 179 182 174 186 125 175 138 134 191 185 157 149 147 164 157 160 180 175 168 174 173 170 177 188 176 171 186 185
251 260 268 286 294 274 256 249 243 246 245 260 245 207 197 183 187 184 171 171 179 138 124 160 129 180 183 161 173 171 188 169 173 154 183 134 172 173 171 176 180 183 175 180 187
263 273 285 295 294 287 270 251 254 244 229 254 230 213 206 196 185 191 184 182 178 179 186 148 174 180 142 188 183 175 143 180 184 183 196 175 173 177 175 171 177 186 183 178 178
282 285 295 292 286 278 278 274 268 251 240 251 246 239 215 205 194 195 193 185 183 180 176 183 171 186 166 173 188 180 169 176 171 171 190 167 144 179 171 178 174 183 180 179 184
299 295 292 293 296 286 297 333 300 269 252 245 259 246 218 203 194 192 192 191 181 171 176 181 183 163 181 171 187 162 176 167 164 181 173 171 171 170 174 175 171 178 183 179 183
291 293 284 269 287 284 323 309 304 271 258 242 259 233 207 205 202 195 197 192 190 183 170 177 183 151 126 180 180 136 181 136 162 184 182 173 173 177 166 169 179 184 171 178 181
297 301 283 263 272 279 268 260 301 271 263 251 258 243 229 208 203 196 177 186 186 179 177 167 186 138 178 176 174 135 183 169 169 172 174 173 173 180 178 183 178 195 174 183 187
295 291 279 267 323 274 267 264 296 269 270 253 256 263 228 219 212 203 184 187 190 185 177 188 178 178 180 165 169 184 182 137 173 180 176 183 174 186 176 161 176 170 177 178 180
309 312 311 312 325 314 265 258 294 268 270 257 257 262 229 222 209 212 188 188 186 180 166 188 174 178 182 183 178 179 175 152 178 178 183 189 181 179 170 172 176 180 177 183 184
320 322 315 310 314 316 298 265 297 269 266 264 260 261 236 217 213 206 197 192 193 186 193 183 180 170 176 181 143 180 175 175 171 172 176 172 181 177 179 176 181 173 186 180 183
312 316 323 324 327 314 318 298 295 266 264 261 265 256 235 219 215 207 207 195 190 192 194 186 174 169 177 188 169 167 170 182 168 176 167 175 177 184 188 167 169 185 181 187 187
451 481 325 317 321 329 318 299 292 271 268 258 263 263 273 220 213 211 207 202 194 192 181 186 170 183 180 179 176 178 181 169 167 164 171 181 179 181 185 180 173 178 185 189 189
Wind_Speed
43 48 36 45 51 44 55 50 47 47 50 48 42 49 45 41 35 36 37 30 30 33 42 41 42 42 46 41 45 41 25 31 31 36 41 37 36 29 50 61 44 25 54 33 63
47 44 50 50 44 48 50 56 54 51 52 51 48 46 44 42 40 34 36 33 30 26 43 43 43 44 44 47 46 32 39 32 37 37 40 42 47 39 38 38 42 49 46 51 46
46 41 47 54 36 49 48 65 61 55 53 52 52 52 55 41 37 45 44 34 34 21 35 40 42 45 45 46 47 48 42 31 37 40 39 44 8 47 45 28 43 37 47 46 42
46 47 44 49 54 43 56 58 65 62 59 56 53 56 51 57 44 42 36 36 34 34 23 37 42 44 45 46 46 55 42 41 42 45 29 28 34 30 34 43 31 44 45 46 62
49 48 47 43 55 47 52 63 65 69 59 63 61 55 55 60 51 40 40 39 36 34 34 27 40 41 42 45 47 50 46 25 46 48 37 50 52 51 56 29 20 23 54 68 52
52 50 49 46 45 42 47 65 81 76 72 65 62 59 59 56 52 47 45 44 38 36 32 38 22 21 41 43 45 40 46 46 47 41 31 49 49 54 55 30 44 64 67 36 66
54 52 52 51 48 55 48 65 83 81 80 69 66 59 60 59 58 49 47 45 51 40 37 38 27 36 24 30 41 45 42 45 44 49 49 53 55 32 41 63 59 32 63 68 59
58 49 52 52 59 50 53 59 70 87 85 83 72 65 65 59 61 63 46 53 44 41 30 35 38 26 20 23 21 20 31 33 36 25 45 52 56 31 58 60 62 59 55 50 49
56 50 49 51 53 52 53 57 71 90 85 84 79 75 70 68 63 57 52 46 46 44 48 49 31 33 25 17 18 18 21 21 25 14 45 51 54 53 52 53 51 45 45 47 44
58 57 54 53 56 56 59 59 63 78 91 82 80 75 70 64 62 57 56 50 47 44 41 49 35 32 43 27 30 31 19 20 22 33 41 45 48 48 42 36 37 40 45 47 45
62 60 60 59 60 61 60 65 61 76 91 88 81 78 76 60 70 65 55 48 50 44 41 48 51 35 35 39 28 24 27 16 15 27 34 39 18 25 31 34 42 42 39 54 47
66 65 64 62 59 65 65 63 64 59 78 93 89 82 79 74 72 68 59 63 56 48 46 55 53 37 35 39 32 27 16 13 13 28 16 15 22 22 28 37 38 38 42 45 50
69 69 68 63 63 65 68 65 65 61 84 97 93 86 83 80 76 69 63 66 57 48 58 49 56 45 34 31 31 26 31 26 15 14 14 16 23 26 30 31 32 40 42 46 52
71 73 69 63 64 66 71 67 65 70 75 86 98 89 88 84 78 72 70 64 57 53 37 48 51 41 35 45 33 35 34 35 34 20 21 22 33 30 23 33 35 36 41 45 50
75 74 69 65 65 68 72 71 68 74 71 88 102 95 92 81 66 78 77 69 66 68 47 35 44 40 41 30 35 31 35 30 23 27 26 28 30 33 34 37 37 44 45 51 53
77 74 70 65 68 70 72 75 75 76 69 88 96 97 94 85 84 79 72 68 70 51 57 50 43 44 47 46 38 32 36 35 36 28 24 37 37 39 43 42 42 48 51 50 55
78 74 69 64 68 75 75 79 81 75 71 73 85 102 99 90 93 85 76 72 65 58 52 57 40 53 51 42 46 43 30 40 40 36 21 39 41 40 43 42 45 50 51 54 60
77 73 66 65 67 74 81 83 81 72 81 74 94 103 103 101 94 89 81 75 67 61 58 51 59 58 43 45 45 40 33 36 40 36 22 32 41 43 44 44 49 51 56 57 61
73 67 63 65 67 70 74 78 77 76 83 79 89 97 105 105 102 94 84 80 72 67 63 63 65 60 52 50 43 48 45 40 40 35 26 42 39 45 45 46 51 53 57 60 65
68 62 64 64 67 69 68 64 70 81 82 86 83 95 107 108 102 88 83 79 73 71 67 66 64 52 56 49 45 39 40 44 37 35 34 42 49 46 47 49 51 55 58 62 68
66 60 69 66 66 65 63 63 71 82 85 91 85 98 105 110 105 93 86 85 82 76 73 70 65 47 40 47 50 33 41 32 36 38 35 41 50 49 45 50 54 56 56 63 69
66 61 73 67 65 63 62 65 74 85 87 89 89 95 106 110 108 98 78 82 81 79 69 64 68 47 56 54 52 35 44 44 41 39 37 45 50 51 51 58 55 61 60 69 72
68 64 72 69 67 64 66 70 78 87 87 91 92 89 103 110 106 101 90 88 85 75 68 67 62 56 55 54 51 45 47 34 41 45 42 49 50 50 52 48 56 55 63 67 71
76 73 74 68 68 72 73 75 81 87 88 91 93 92 103 104 106 104 97 92 83 74 74 66 66 58 56 58 54 46 45 38 42 41 42 43 49 50 50 55 59 64 65 69 71
79 76 74 70 67 74 79 79 85 90 92 93 95 92 103 105 105 106 105 97 92 82 80 67 66 60 61 57 41 49 45 43 40 43 44 43 46 49 53 56 61 59 65 67 70
75 72 74 75 79 78 84 84 89 95 96 92 92 97 99 106 106 107 109 97 90 88 80 70 68 63 62 59 54 46 43 44 43 47 41 44 47 52 53 52 52 61 66 69 72
44 43 78 79 80 81 82 88 93 99 96 92 95 96 86 108 108 107 108 98 91 85 78 73 68 67 64 61 56 51 46 46 42 40 44 46 51 54 54 56 55 60 66 69 72
Wind_Direction
259 261 252 258 245 239 231 232 236 230 227 223 220 219 233 227 226 230 237 239 230 234 230 231 231 234 234 236 240 245 244 253 254 263 263 267 265 278 265 253 287 304 289 297 290
261 260 252 248 246 241 229 231 233 231 229 226 227 222 234 225 230 227 231 234 228 254 227 231 230 233 239 240 241 249 245 250 257 259 264 268 267 272 282 279 287 288 289 289 293
266 263 253 236 252 241 243 221 231 232 228 220 225 224 230 227 236 227 238 232 231 266 231 233 235 234 236 239 242 247 248 246 248 251 263 268 289 271 279 287 289 294 294 299 294
266 263 262 249 242 241 237 230 225 230 230 231 221 229 220 224 227 232 243 226 232 234 237 233 235 238 239 243 245 250 249 248 248 249 273 267 269 284 284 286 289 290 295 297 291
266 256 264 252 237 241 235 228 226 225 229 227 227 223 227 230 223 233 236 229 229 232 234 234 233 237 242 245 247 253 254 265 252 254 263 259 265 268 267 287 296 294 284 284 288
264 259 253 249 251 252 239 223 213 221 227 229 222 227 226 227 230 222 234 235 227 230 235 236 243 249 239 245 248 247 257 258 260 261 264 261 266 265 270 293 292 278 282 306 288
262 260 254 248 254 241 239 223 215 217 219 227 227 221 228 224 224 229 218 234 235 232 238 244 242 242 252 245 247 253 255 263 262 262 264 266 270 272 278 274 280 307 288 287 296
262 263 258 258 247 244 237 232 221 214 217 220 225 221 226 226 224 224 230 231 232 233 227 236 243 245 253 252 254 263 259 256 262 273 266 266 266 274 275 278 281 287 293 299 301
257 262 258 256 247 248 239 234 220 212 214 218 223 224 226 222 227 222 228 226 227 234 236 239 241 247 251 251 253 269 270 269 262 220 258 262 265 269 276 285 294 298 304 305 303
269 262 256 254 252 248 238 235 228 218 213 218 221 222 224 224 225 224 219 230 232 223 230 238 235 247 247 253 255 260 277 274 268 258 262 266 272 277 288 298 300 302 305 301 302
267 269 261 261 252 247 242 233 230 219 213 217 218 221 219 224 223 218 226 222 227 227 229 224 243 238 254 249 254 263 269 261 238 264 250 253 253 286 290 296 294 305 305 296 305
267 268 268 264 251 245 241 233 229 227 217 212 218 220 217 220 221 220 223 221 219 223 234 235 238 238 242 251 253 258 264 281 274 273 254 261 292 310 296 294 302 311 306 307 306
268 270 269 262 252 243 240 234 227 224 217 210 215 219 217 218 219 220 218 224 220 223 231 231 237 239 239 245 251 253 265 271 276 290 302 330 312 306 304 305 310 306 305 303 302
271 270 268 258 247 239 238 233 226 223 220 216 213 217 217 218 217 218 220 220 219 221 232 232 236 234 233 246 248 245 254 258 269 292 285 294 290 304 298 317 301 312 309 313 320
271 270 265 257 244 237 235 231 225 223 219 215 209 216 216 216 222 217 217 216 219 224 232 236 231 234 225 230 246 247 253 251 252 263 275 283 295 302 306 324 319 315 325 322 325
272 269 263 255 242 235 230 230 221 221 217 213 212 212 214 214 220 219 219 219 219 228 222 233 231 234 227 244 244 250 254 262 266 267 269 283 287 293 294 312 320 310 309 317 317
270 267 261 253 240 232 228 227 223 217 215 218 211 210 212 214 219 218 215 216 218 225 233 226 234 230 230 235 248 254 244 259 265 275 267 287 284 289 293 304 313 311 306 313 324
267 264 257 247 239 233 227 226 224 216 213 216 209 208 212 210 217 219 216 217 215 217 217 231 230 231 235 228 237 246 251 248 257 266 275 279 284 291 296 300 308 316 313 317 321
263 257 249 243 238 232 230 226 223 217 214 213 210 207 212 210 214 217 214 215 214 212 216 216 230 230 240 236 232 238 262 257 268 274 276 284 290 287 298 306 307 312 315 317 318
256 250 246 239 235 231 230 224 216 217 214 212 213 206 209 211 215 216 217 217 216 216 218 218 222 224 233 238 232 242 246 262 270 265 275 280 285 296 301 303 308 310 312 316 319
251 245 243 235 232 227 224 218 212 215 212 212 211 205 209 213 213 215 214 216 218 214 219 221 220 223 239 230 234 247 241 257 274 267 268 279 283 289 302 303 307 311 315 317 321
248 242 240 232 229 223 217 215 210 214 210 211 210 205 208 211 213 213 215 215 216 216 213 220 220 227 227 231 241 248 240 259 268 273 277 277 282 286 293 294 305 308 316 319 320
246 238 237 230 226 220 217 214 209 212 209 208 210 206 206 209 213 211 213 219 219 218 214 217 223 223 226 239 244 237 241 257 262 265 273 274 284 288 293 304 308 315 316 319 322
244 240 237 233 223 217 215 212 207 209 207 206 209 207 203 207 211 212 210 215 217 213 224 216 225 223 221 227 235 236 245 257 258 265 271 276 281 288 299 306 309 309 314 315 321
243 239 234 228 222 218 214 211 206 206 207 206 206 207 200 206 207 212 211 210 214 214 221 215 218 225 229 228 235 238 246 252 264 268 271 282 283 287 293 297 300 311 309 315 321
238 234 231 224 222 213 210 207 205 204 206 204 203 207 198 203 207 211 214 210 211 215 216 211 218 226 230 225 241 246 248 249 260 264 276 281 286 290 289 298 309 306 311 315 319
227 205 223 217 216 211 207 204 203 203 205 201 203 204 197 202 206 209 214 213 212 215 210 207 217 221 224 228 235 237 240 251 261 273 279 284 285 287 291 297 307 308 311 316 319